Location: Caltech
(34.1382°N, 118.1253°W)
Time: 17:47:17
(UTC-08:00)

Cosmos 1606 - Visible Passes

Search period start: 24 November 2017 00:00
Search period end: 04 December 2017 00:00
Orbit: 505 x 532 km, 82.5° (Epoch: 24 November)

Date Brightness Start Highest point End Pass type
(mag) Time Alt. Az. Time Alt. Az. Time Alt. Az.
24 Nov 5.3 04:06:18 16° NE 04:07:42 19° ENE 04:10:31 10° SE visible
24 Nov 4.0 05:41:27 15° NW 05:43:19 20° W 05:46:10 10° SW visible
24 Nov 3.9 17:50:57 10° SSW 17:54:33 43° W 17:58:10 10° N visible
25 Nov 5.5 03:53:28 16° ENE 03:53:29 16° ENE 03:55:56 10° ESE visible
25 Nov 3.8 05:28:38 23° WNW 05:29:12 24° W 05:32:20 10° SW visible
25 Nov 3.5 17:36:40 10° SSW 17:40:22 53° W 17:44:04 10° N visible
26 Nov 6.0 03:40:39 12° E 03:40:39 12° E 03:41:14 10° ESE visible
26 Nov 3.7 05:15:47 27° WSW 05:15:47 27° WSW 05:18:25 10° SSW visible
26 Nov 3.1 17:22:26 10° SSW 17:26:11 67° W 17:29:56 10° N visible
27 Nov 4.4 05:02:57 20° SW 05:02:57 20° SW 05:04:27 10° SSW visible
27 Nov 2.7 17:08:14 10° S 17:12:00 84° W 17:15:47 10° N visible
28 Nov 5.1 04:50:03 12° SSW 04:50:03 12° SSW 04:50:26 10° SSW visible
02 Dec 5.9 17:35:46 10° W 17:37:02 11° WNW 17:38:17 10° NW visible
03 Dec 5.7 17:20:47 10° WSW 17:22:46 14° WNW 17:24:45 10° NW visible
